EW5462 Weather Reports


Display with metric or nautical units.
time (UTC)temp
F
wind
direction
speed
MPH
gust
MPH
rain 1hr
in
rain 24hr
in
rain mn
in
humidity
%
barometer
mb
20260506001616 78 256 9.0 11.0 0.00 0.00 0.00 27 1009.3
20260506000617 80 229 8.0 11.0 0.00 0.00 0.00 25 1009.2
20260505234616 78 276 9.0 12.0 0.00 0.00 0.00 27 1009.3
20260505233616 79 310 9.0 12.0 0.00 0.00 0.00 25 1009.2
20260505232622 78 253 5.0 7.0 0.00 0.00 0.00 27 1009.3
20260505231616 80 228 5.0 6.0 0.00 0.00 0.00 25 1009.2
20260505230617 79 269 8.0 11.0 0.00 0.00 0.00 27 1009.3
20260505225617 78 287 5.0 7.0 0.00 0.00 0.00 27 1009.4
20260505224617 79 279 10.0 12.0 0.00 0.00 0.00 26 1009.5
20260505223616 77 314 5.0 7.0 0.00 0.00 0.00 28 1009.5
20260505222617 77 327 4.0 6.0 0.00 0.00 0.00 28 1009.6
20260505221617 78 293 8.0 10.0 0.00 0.00 0.00 28 1009.8
20260505220616 79 252 10.0 13.0 0.00 0.00 0.00 27 1010.0
20260505215617 80 235 6.0 7.0 0.00 0.00 0.00 27 1010.0
20260505214616 77 257 8.0 11.0 0.00 0.00 0.00 28 1010.2
20260505213617 76 219 3.0 4.0 0.00 0.00 0.00 30 1010.3
20260505211617 77 308 8.0 10.0 0.00 0.00 0.00 29 1010.6
20260505210617 77 292 6.0 8.0 0.00 0.00 0.00 29 1010.8
20260505205617 79 257 10.0 13.0 0.00 0.00 0.00 27 1010.8
20260505204617 78 314 6.0 10.0 0.00 0.00 0.00 28 1010.8
20260505203617 77 276 10.0 14.0 0.00 0.00 0.00 29 1010.9
20260505202616 77 259 13.0 17.0 0.00 0.00 0.00 29 1010.9
20260505201617 80 220 7.0 10.0 0.00 0.00 0.00 25 1011.0
20260505200616 80 224 7.0 10.0 0.00 0.00 0.00 26 1011.0
20260505195617 79 234 5.0 7.0 0.00 0.00 0.00 28 1011.1
20260505194517 77 275 8.0 10.0 0.00 0.00 0.00 29 1011.3
20260505193516 76 244 5.0 6.0 0.00 0.00 0.00 30 1011.4
20260505192517 76 248 6.0 9.0 0.00 0.00 0.00 31 1011.5
20260505191517 76 221 7.0 14.0 0.00 0.00 0.00 32 1011.6
20260505190517 75 249 3.0 4.0 0.00 0.00 0.00 33 1011.7
20260505185516 76 305 6.0 9.0 0.00 0.00 0.00 31 1011.7
20260505184517 75 256 5.0 6.0 0.00 0.00 0.00 33 1011.8
20260505183516 75 258 8.0 10.0 0.00 0.00 0.00 33 1011.9
20260505182517 75 271 7.0 9.0 0.00 0.00 0.00 34 1011.9
20260505181517 74 312 6.0 9.0 0.00 0.00 0.00 35 1011.9
20260505180517 75 266 7.0 11.0 0.00 0.00 0.00 35 1012.0
20260505175517 74 252 5.0 8.0 0.00 0.00 0.00 36 1012.0
20260505174517 74 293 6.0 10.0 0.00 0.00 0.00 35 1012.0
20260505173517 74 287 10.0 13.0 0.00 0.00 0.00 35 1012.0
20260505172517 73 251 6.0 10.0 0.00 0.00 0.00 36 1012.0
20260505171517 72 266 10.0 13.0 0.00 0.00 0.00 37 1012.0
20260505170517 72 289 8.0 11.0 0.00 0.00 0.00 36 1011.9
20260505165516 72 255 9.0 13.0 0.00 0.00 0.00 37 1011.9
20260505164517 72 273 7.0 10.0 0.00 0.00 0.00 38 1011.8
20260505163517 71 277 10.0 12.0 0.00 0.00 0.00 37 1012.0
20260505162517 72 247 12.0 17.0 0.00 0.00 0.00 38 1011.8
20260505161517 72 254 10.0 15.0 0.00 0.00 0.00 39 1011.8
20260505161318 71 299 9.0 14.0 0.00 0.00 0.00 39 1011.8
20260505160318 71 296 11.0 14.0 0.00 0.00 0.00 39 1011.8
20260505153317 69 274 9.0 12.0 0.00 0.00 0.00 43 1011.9
20260505152318 68 259 9.0 12.0 0.00 0.00 0.00 44 1011.9
20260505151318 68 269 10.0 13.0 0.00 0.00 0.00 44 1011.8
20260505140319 63 259 5.0 7.0 0.00 0.00 0.00 49 1011.6
20260505124317 60 304 2.0 3.0 0.00 0.00 0.00 49 1011.2
20260505123317 60 327 4.0 5.0 0.00 0.00 0.00 50 1011.1
20260505122316 60 320 4.0 7.0 0.00 0.00 0.00 49 1011.0
20260505121317 60 334 6.0 7.0 0.00 0.00 0.00 48 1010.9
20260505120317 60 312 3.0 4.0 0.00 0.00 0.00 48 1011.0
20260505115316 60 308 3.0 4.0 0.00 0.00 0.00 48 1010.9
20260505114317 60 320 1.0 3.0 0.00 0.00 0.00 48 1010.8
20260505113316 59 0.0 0.0 0.00 0.00 0.00 50 1010.9
20260505112317 59 0.0 0.0 0.00 0.00 0.00 51 1011.0
20260505111317 59 172 2.0 3.0 0.00 0.00 0.00 51 1010.9
20260505110317 59 0.0 0.0 0.00 0.00 0.00 51 1010.8
20260505101316 62 1 3.0 4.0 0.00 0.00 0.00 46 1010.8
20260505100316 62 339 3.0 6.0 0.00 0.00 0.00 47 1010.7
20260505095316 61 19 4.0 6.0 0.00 0.00 0.00 48 1010.7
20260505094317 62 9 5.0 6.0 0.00 0.00 0.00 46 1010.8
20260505093316 62 342 3.0 4.0 0.00 0.00 0.00 46 1010.8
20260505092317 62 337 6.0 8.0 0.00 0.00 0.00 47 1010.9
20260505091317 62 0.0 0.0 0.00 0.00 0.00 47 1011.0
20260505091217 62 336 1.0 3.0 0.00 0.00 0.00 47 1011.0
20260505090217 62 287 4.0 5.0 0.00 0.00 0.00 47 1011.2
20260505085217 62 283 3.0 3.0 0.00 0.00 0.00 48 1011.3
20260505084216 62 286 4.0 5.0 0.00 0.00 0.00 48 1011.4
20260505083217 63 266 3.0 4.0 0.00 0.00 0.00 48 1011.5
20260505082217 63 261 7.0 9.0 0.00 0.00 0.00 47 1011.7
20260505081216 63 295 5.0 8.0 0.00 0.00 0.00 47 1011.9
20260505080217 63 344 0.0 3.0 0.00 0.00 0.00 47 1011.9
20260505075216 63 0.0 0.0 0.00 0.00 0.00 47 1011.9
20260505074216 64 259 0.0 2.0 0.00 0.00 0.00 47 1011.9
20260505073217 64 302 3.0 4.0 0.00 0.00 0.00 47 1011.8
20260505072217 64 281 1.0 4.0 0.00 0.00 0.00 47 1011.9
20260505071216 64 279 5.0 7.0 0.00 0.00 0.00 46 1011.8
20260505070217 64 270 5.0 7.0 0.00 0.00 0.00 46 1011.7
20260505065216 65 253 6.0 7.0 0.00 0.00 0.00 45 1011.6
20260505064217 65 265 11.0 13.0 0.00 0.00 0.00 45 1011.5
20260505063216 66 270 11.0 14.0 0.00 0.00 0.00 44 1011.6
20260505062217 66 269 5.0 9.0 0.00 0.00 0.00 44 1011.6
20260505061217 66 270 8.0 11.0 0.00 0.00 0.00 43 1011.4
20260505060217 67 260 11.0 14.0 0.00 0.00 0.00 42 1011.2
20260505054217 67 259 10.0 13.0 0.00 0.00 0.00 41 1011.1
20260505053217 68 271 12.0 14.0 0.00 0.00 0.00 41 1011.1
20260505052217 68 272 11.0 16.0 0.00 0.00 0.00 41 1011.1
20260505051216 68 273 9.0 11.0 0.00 0.00 0.00 40 1011.1
20260505050217 69 271 10.0 12.0 0.00 0.00 0.00 39 1011.0
20260505041216 70 262 9.0 11.0 0.00 0.00 0.00 37 1010.8
20260505040217 70 260 7.0 9.0 0.00 0.00 0.00 37 1010.9
20260505035217 71 254 7.0 11.0 0.00 0.00 0.00 36 1010.8
20260505034217 71 252 10.0 14.0 0.00 0.00 0.00 35 1010.7
20260505033716 72 250 9.0 12.0 0.00 0.00 0.00 34 1010.6
20260505032717 72 254 10.0 13.0 0.00 0.00 0.00 34 1010.3
20260505031716 72 236 7.0 9.0 0.00 0.00 0.00 34 1010.2
20260505030717 73 245 6.0 8.0 0.00 0.00 0.00 34 1009.9
20260505025716 74 239 9.0 11.0 0.00 0.00 0.00 31 1009.7
20260505024717 74 251 7.0 9.0 0.00 0.00 0.00 30 1009.5
20260505024417 74 260 7.0 10.0 0.00 0.00 0.00 29 1009.5
20260505023417 76 219 5.0 6.0 0.00 0.00 0.00 25 1009.3
20260505022418 76 210 6.0 9.0 0.00 0.00 0.00 25 1009.3
20260505021417 76 204 5.0 6.0 0.00 0.00 0.00 25 1009.1
20260505020416 76 203 7.0 9.0 0.00 0.00 0.00 26 1009.1
20260505015416 76 196 7.0 10.0 0.00 0.00 0.00 26 1009.0
20260505014417 76 205 6.0 7.0 0.00 0.00 0.00 26 1009.1
20260505013617 77 207 4.0 5.0 0.00 0.00 0.00 25 1009.0
20260505013417 77 204 6.0 7.0 0.00 0.00 0.00 25 1009.0
20260505012917 76 194 6.0 9.0 0.00 0.00 0.00 25 1009.0
20260505011917 77 187 6.0 8.0 0.00 0.00 0.00 25 1008.9
20260505010916 77 190 4.0 6.0 0.00 0.00 0.00 25 1009.2
20260505005917 77 206 6.0 9.0 0.00 0.00 0.00 25 1009.0
20260505004917 78 210 4.0 5.0 0.00 0.00 0.00 24 1008.9
20260505003917 78 155 4.0 6.0 0.00 0.00 0.00 24 1009.0
20260505002916 78 186 3.0 5.0 0.00 0.00 0.00 24 1009.2